Content
SEND FEEDBACK

Daily
Averages
Monthly
Summary
United States of America

NEWPORT BEACH, CALIFORNIA


Home > North America > United States > California
Elevation: 192 feet     Latitude: 33 36N     Longitude: 117 52W

WEATHER
 
SELECT A DAY
Number of Records: 177,084;   Date Range: 1/1/95 - 9/22/14
 
SHARE

PRINT THIS DATA

[ ← Previous Day ]
WEATHER ALMANAC - FEBRUARY 13, 2013
[ Next Day → ]
[ °C ]   °F
Weather ElementAverageHighLow
Temperature53.4 °F63 °F (2:53 pm)42.1 °F (5:53 am)
Dewpoint41.9 °F46.9 °F (1:53 pm)35.1 °F (2:53 am)
Humidity66.3 %80 % (9:53 pm)41 % (2:53 pm)
Barometer30.20 in30.26 in (7:53 am)30.15 in (3:53 pm)
Wind Speed2.4 mph8.1 mph (11:53 am)
Weather ElementAverage
Visibility10 mi
Wind DirectionENE (77.7 °)

Weather ElementTotal
Precipitation---
Heating Degree Days12.5 (Base 65)
Growing Degree Days2.6 (Base 50)
Averaged from 22 records on February 13, 2013
WEATHER CONDITIONS BREAKOUT
WIND DIRECTION BREAKOUT
WEATHER BY HOUR - FEBRUARY 13, 2013
[ °C ]   °F
Local TimeTemperatureDewpointHumidityBarometerVisibilityWind DirectionWind SpeedGust SpeedPrecipitationEventsConditions
1:53 AM46.0 °F36.0 °F68 %30.25 in10.0 miNNE (30°)3.5 mphClear
2:53 AM44.1 °F35.1 °F71 %30.24 in10.0 miCalmClear
4:53 AM43.0 °F36.0 °F76 %30.23 in10.0 miCalmClear
5:53 AM42.1 °F35.1 °F76 %30.24 in10.0 miCalmPartly Cloudy
6:53 AM42.1 °F36.0 °F79 %30.25 in10.0 miCalmClear
7:53 AM48.0 °F37.9 °F68 %30.26 in10.0 miCalmClear
8:53 AM54.0 °F39.9 °F59 %30.26 in10.0 miCalmClear
9:53 AM57.9 °F42.1 °F56 %30.26 in10.0 miCalmClear
10:53 AM61.0 °F41.0 °F48 %30.25 in10.0 miVariable4.6 mphClear
11:53 AM61.0 °F46.0 °F58 %30.22 in10.0 miSW (220°)8.1 mphClear
12:53 PM62.1 °F46.0 °F56 %30.19 in10.0 miWSW (250°)5.8 mphClear
1:53 PM62.1 °F46.9 °F58 %30.18 in10.0 miSSW (200°)8.1 mphClear
2:53 PM63.0 °F39.0 °F41 %30.16 in10.0 miNW (310°)4.6 mphClear
3:53 PM61.0 °F41.0 °F48 %30.15 in10.0 miWSW (250°)5.8 mphClear
4:53 PM59.0 °F45.0 °F60 %30.15 in10.0 miSW (230°)5.8 mphClear
5:53 PM55.9 °F46.9 °F72 %30.16 in10.0 miSW (220°)5.8 mphClear
6:53 PM55.0 °F46.9 °F74 %30.16 in10.0 miCalmClear
7:53 PM54.0 °F46.9 °F77 %30.16 in10.0 miCalmClear
8:53 PM53.1 °F46.0 °F77 %30.17 in10.0 miCalmClear
9:53 PM51.1 °F45.0 °F80 %30.17 in10.0 miCalmClear
10:53 PM50.0 °F44.1 °F80 %30.18 in10.0 miCalmClear
11:53 PM50.0 °F43.0 °F77 %30.18 in10.0 miCalmClear
Hourly data recorded from KSNA, located miles away from Newport Beach, California







STORIES FROM OUR PARTNERS